Weather History for KLRU - December, 2012

Change the Weather History Date:

Thursday, December 6, 2012

  Actual Average Record
Temperature  
Mean Temperature 56 °F -  
Max Temperature 72 °F 54 °F 72 °F (2012)
Min Temperature 40 °F 32 °F 5 °F (2011)
Degree Days  
Heating Degree Days 9    
Growing Degree Days 6 (Base 50)    
Moisture  
Dew Point 22 °F    
Average Humidity 32    
Maximum Humidity 55    
Minimum Humidity 15    
Precipitation  
Precipitation 0.00 in - - ()
Sea Level Pressure  
Sea Level Pressure 29.99 in    
Wind  
Wind Speed 7 mph (WSW)    
Max Wind Speed 13 mph    
Max Gust Speed 16 mph    
Visibility 10 miles    
Events      
Averages and records for this station are not official NWS values.
T = Trace of Precipitation, MM = Missing Value Source: NWS Daily Summary

Daily Weather History Graph

Daily Weather History Graph

Search for Another Location

Airport or City:

Trip Planner

Search our weather history database for the weather conditions in past years. The results will help you decide how hot, cold, wet, or windy it might be!

Date:

Astronomy

Dec. 06, 2012 Rise Set
Actual Time 6:55 AM MST 5:02 PM MST
Civil Twilight 6:28 AM MST 5:29 PM MST
Nautical Twilight 5:58 AM MST 5:59 PM MST
Astronomical Twilight 5:28 AM MST 6:29 PM MST
Moon No Moon Rise 12:09 PM MST (12/6)
Length of Visible Light 11h 00m
Length of Day
10h 07m
Waning Gibbous, 48% of the Moon is Illuminated
Dec 6
Waning Gibbous
Dec 13
New
Dec 19
First Quarter
Dec 28
Full
Jan 4
Last Quarter

Hourly Weather History & Observations

Time (MST) Temp. Windchill Dew Point Humidity Pressure Visibility Wind Dir Wind Speed Gust Speed Precip Events Conditions
12:15 AM 44.4 °F 39.5 °F 25.0 °F 46% 30.07 in 10.0 mi West 9.2 mph - N/A   Clear
12:35 AM 41.9 °F 38.2 °F 23.9 °F 49% 30.07 in 10.0 mi West 5.8 mph - N/A   Clear
12:55 AM 40.8 °F 37.8 °F 23.7 °F 51% 30.06 in 10.0 mi West 4.6 mph - N/A   Clear
1:15 AM 43.2 °F 40.5 °F 25.2 °F 49% 30.06 in 10.0 mi West 4.6 mph - N/A   Clear
1:35 AM 44.1 °F 40.1 °F 25.7 °F 49% 30.06 in 10.0 mi West 6.9 mph - N/A   Clear
1:55 AM 42.6 °F 39.9 °F 25.0 °F 50% 30.06 in 10.0 mi West 4.6 mph - N/A   Clear
2:15 AM 43.9 °F 40.5 °F 26.4 °F 50% 30.06 in 10.0 mi West 5.8 mph - N/A   Clear
2:35 AM 43.5 °F 41.9 °F 26.6 °F 51% 30.05 in 10.0 mi NW 3.5 mph - N/A   Clear
2:55 AM 43.7 °F - 26.8 °F 51% 30.05 in 10.0 mi Calm Calm - N/A   Clear
3:15 AM 43.5 °F 41.9 °F 27.5 °F 53% 30.04 in 10.0 mi WNW 3.5 mph - N/A   Clear
3:35 AM 42.3 °F 39.4 °F 26.6 °F 54% 30.04 in 10.0 mi West 4.6 mph - N/A   Clear
3:55 AM 40.6 °F 38.6 °F 25.2 °F 54% 30.04 in 10.0 mi WNW 3.5 mph - N/A   Clear
4:15 AM 41.0 °F 38.0 °F 25.7 °F 55% 30.04 in 10.0 mi WNW 4.6 mph - N/A   Clear
4:35 AM 41.9 °F 35.9 °F 25.7 °F 53% 30.03 in 10.0 mi West 10.4 mph - N/A   Clear
5:15 AM 44.1 °F 38.6 °F 27.1 °F 51% 30.03 in 10.0 mi West 10.4 mph - N/A   Clear
5:35 AM 43.7 °F 37.7 °F 27.3 °F 53% 30.03 in 10.0 mi WSW 11.5 mph - N/A   Clear
5:55 AM 43.9 °F 38.8 °F 27.5 °F 53% 30.03 in 10.0 mi WSW 9.2 mph - N/A   Clear
6:15 AM 42.1 °F 37.7 °F 26.8 °F 55% 30.04 in 10.0 mi WSW 6.9 mph - N/A   Clear
6:35 AM 42.6 °F 37.8 °F 26.8 °F 54% 30.05 in 10.0 mi SW 8.1 mph - N/A   Clear
6:55 AM 45.5 °F 40.8 °F 26.4 °F 47% 30.05 in 10.0 mi SW 9.2 mph - N/A   Clear
7:15 AM 44.6 °F 40.2 °F 25.5 °F 47% 30.04 in 10.0 mi SW 8.1 mph - N/A   Clear
7:35 AM 46.4 °F 43.5 °F 24.8 °F 43% 30.04 in 10.0 mi SW 5.8 mph - N/A   Clear
8:15 AM 46.0 °F - 26.6 °F 47% 30.04 in 10.0 mi Calm Calm - N/A   Clear
8:35 AM 48.6 °F - 27.0 °F 43% 30.04 in 10.0 mi Calm Calm - N/A   Clear
8:55 AM 51.1 °F - 26.8 °F 39% 30.04 in 10.0 mi Calm Calm - N/A   Clear
9:15 AM 52.2 °F - 27.9 °F 39% 30.05 in 10.0 mi Calm Calm - N/A   Clear
9:35 AM 53.8 °F - 27.5 °F 36% 30.05 in 10.0 mi Calm Calm - N/A   Clear
9:55 AM 54.9 °F - 27.5 °F 35% 30.05 in 10.0 mi Calm Calm - N/A   Clear
10:15 AM 56.3 °F - 27.7 °F 33% 30.04 in 10.0 mi SE 3.5 mph - N/A   Clear
10:35 AM 58.1 °F - 28.0 °F 32% 30.03 in 10.0 mi Calm Calm - N/A   Clear
10:55 AM 59.4 °F - 27.9 °F 30% 30.03 in 10.0 mi SW 4.6 mph - N/A   Clear
11:15 AM 62.8 °F - 27.7 °F 27% 30.01 in 10.0 mi South 5.8 mph - N/A   Clear
11:35 AM 64.8 °F - 27.7 °F 25% 30.00 in 10.0 mi SSE 4.6 mph - N/A   Clear
11:55 AM 66.2 °F - 27.5 °F 23% 29.99 in 10.0 mi South 6.9 mph - N/A   Clear
12:15 PM 67.6 °F - 27.3 °F 22% 29.98 in 10.0 mi South 6.9 mph - N/A   Clear
12:35 PM 68.7 °F - 27.0 °F 21% 29.97 in 10.0 mi South 8.1 mph - N/A   Clear
12:55 PM 70.9 °F - 25.0 °F 18% 29.96 in 10.0 mi SW 10.4 mph 16.1 mph N/A   Clear
1:15 PM 72.0 °F - 22.8 °F 16% 29.95 in 10.0 mi SW 8.1 mph - N/A   Clear
1:35 PM 71.8 °F - 22.6 °F 16% 29.94 in 10.0 mi West 10.4 mph - N/A   Clear
1:55 PM 71.6 °F - 22.3 °F 16% 29.94 in 10.0 mi SW 10.4 mph - N/A   Clear
2:15 PM 72.1 °F - 22.3 °F 15% 29.93 in 10.0 mi WSW 10.4 mph - N/A   Clear
2:35 PM 72.5 °F - 21.4 °F 15% 29.92 in 10.0 mi SW 12.7 mph 16.1 mph N/A   Clear
2:55 PM 71.8 °F - 21.7 °F 15% 29.92 in 10.0 mi WSW 10.4 mph 16.1 mph N/A   Clear
3:15 PM 72.3 °F - 21.9 °F 15% 29.91 in 10.0 mi WSW 10.4 mph - N/A   Clear
3:35 PM 72.1 °F - 22.1 °F 15% 29.91 in 10.0 mi SW 10.4 mph - N/A   Clear
3:55 PM 72.0 °F - 22.1 °F 15% 29.91 in 10.0 mi WSW 11.5 mph - N/A   Clear
4:15 PM 71.4 °F - 21.9 °F 16% 29.91 in 10.0 mi SW 9.2 mph - N/A   Clear
4:35 PM 70.7 °F - 21.2 °F 15% 29.91 in 10.0 mi WSW 5.8 mph - N/A   Clear
4:55 PM 68.4 °F - 20.5 °F 16% 29.91 in 10.0 mi SW 4.6 mph - N/A   Clear
5:15 PM 64.4 °F - 20.8 °F 19% 29.91 in 10.0 mi SW 3.5 mph - N/A   Clear
5:35 PM 62.2 °F - 20.7 °F 20% 29.91 in 10.0 mi SW 5.8 mph - N/A   Clear
5:55 PM 59.5 °F - 20.1 °F 22% 29.92 in 10.0 mi West 9.2 mph - N/A   Clear
6:15 PM 59.4 °F - 19.4 °F 21% 29.92 in 10.0 mi West 9.2 mph - N/A   Clear
6:35 PM 59.4 °F - 16.9 °F 19% 29.92 in 10.0 mi West 9.2 mph - N/A   Clear
6:55 PM 60.1 °F - 12.6 °F 15% 29.92 in 10.0 mi West 9.2 mph - N/A   Clear
7:35 PM 59.9 °F - 10.9 °F 15% 29.93 in 10.0 mi WNW 6.9 mph - N/A   Clear
7:55 PM 55.6 °F - 10.0 °F 16% 29.94 in 10.0 mi West 5.8 mph - N/A   Clear
8:15 PM 53.1 °F - 10.4 °F 18% 29.94 in 10.0 mi WSW 5.8 mph - N/A   Clear
8:35 PM 50.7 °F - 11.8 °F 21% 29.94 in 10.0 mi WSW 10.4 mph - N/A   Clear
8:55 PM 49.8 °F - 11.8 °F 22% 29.94 in 10.0 mi West 9.2 mph - N/A   Clear
9:15 PM 52.5 °F - 11.8 °F 20% 29.95 in 10.0 mi West 10.4 mph - N/A   Clear
9:35 PM 53.2 °F - 11.7 °F 19% 29.95 in 10.0 mi West 10.4 mph - N/A   Clear
9:55 PM 50.5 °F - 11.8 °F 21% 29.95 in 10.0 mi West 10.4 mph - N/A   Clear
10:15 PM 47.5 °F - 11.3 °F 23% 29.95 in 10.0 mi WNW 8.1 mph - N/A   Clear
10:35 PM 50.5 °F - 12.0 °F 21% 29.95 in 10.0 mi WNW 9.2 mph - N/A   Clear
10:55 PM 50.2 °F - 11.8 °F 22% 29.95 in 10.0 mi WNW 10.4 mph - N/A   Clear
11:15 PM 50.0 °F - 12.2 °F 22% 29.95 in 10.0 mi WNW 9.2 mph - N/A   Clear
11:35 PM 49.1 °F - 12.4 °F 23% 29.95 in 10.0 mi WNW 8.1 mph - N/A   Clear
11:55 PM 47.5 °F - 12.2 °F 24% 29.95 in 10.0 mi WNW 10.4 mph - N/A   Clear